FW2259 Weather Reports


time (UTC)temp
C
wind
direction
speed
KPH
gust
KPH
rain 1hr
cm
rain 24hr
cm
rain mn
cm
humidity
%
barometer
mb
20260506214509 13 209 0.0 8.0 0.00 0.15 0.15 87 1012.6
20260506213006 13 223 0.0 9.7 0.03 0.15 0.15 87 1012.6
20260506211508 13 196 0.0 9.7 0.03 0.15 0.15 90 1012.7
20260506210011 13 194 0.0 3.2 0.03 0.15 0.15 90 1012.7
20260506204506 13 184 0.0 6.4 0.03 0.15 0.15 86 1012.4
20260506203005 14 257 0.0 6.4 0.00 0.13 0.13 85 1012.3
20260506201505 14 130 4.8 14.5 0.00 0.13 0.13 89 1012.2
20260506200007 14 242 0.0 6.4 0.00 0.13 0.13 90 1012.2
20260506194503 14 315 0.0 0.0 0.00 0.13 0.13 91 1011.9
20260506193003 14 309 0.0 0.0 0.00 0.13 0.13 90 1011.8
20260506191502 14 309 0.0 3.2 0.00 0.13 0.13 89 1011.6
20260506190001 15 302 1.6 9.7 0.00 0.13 0.13 88 1011.6
20260506184501 15 197 0.0 3.2 0.00 0.13 0.13 86 1011.4
20260506183000 15 197 0.0 0.0 0.00 0.13 0.13 86 1011.1
20260506181600 16 197 0.0 8.0 0.00 0.13 0.13 81 1011.0
20260506181501 16 197 0.0 8.0 0.00 0.13 0.13 81 1011.0
20260506180059 15 140 1.6 6.4 0.00 0.13 0.13 83 1010.7
20260506174559 16 331 0.0 3.2 0.00 0.13 0.13 86 1010.9
20260506173111 16 331 0.0 1.6 0.00 0.13 0.13 85 1010.9
20260506171607 16 331 0.0 6.4 0.00 0.13 0.13 84 1010.8
20260506164612 16 323 0.0 8.0 0.00 0.13 0.13 86 1011.0
20260506163102 16 327 0.0 6.4 0.00 0.13 0.13 86 1011.0
20260506161553 16 302 0.0 6.4 0.00 0.13 0.13 85 1011.2
20260506160104 17 331 3.2 8.0 0.00 0.13 0.13 86 1011.3
20260506154552 16 312 1.6 11.3 0.00 0.13 0.13 88 1011.6
20260506153045 15 298 1.6 9.7 0.00 0.13 0.13 90 1011.7
20260506151543 15 292 1.6 4.8 0.00 0.13 0.13 90 1011.7
20260506150041 15 318 3.2 9.7 0.00 0.13 0.13 91 1011.9
20260506144543 15 276 1.6 9.7 0.03 0.13 0.13 92 1011.9
20260506143039 15 346 0.0 8.0 0.03 0.13 0.13 92 1012.0
20260506140039 15 265 1.6 6.4 0.03 0.13 0.13 92 1012.1
20260506134536 15 242 1.6 11.3 0.00 0.10 0.10 90 1012.3
20260506133034 15 337 1.6 9.7 0.00 0.10 0.10 92 1012.2
20260506131538 15 5 0.0 3.2 0.00 0.10 0.10 91 1012.3
20260506130031 15 310 1.6 6.4 0.00 0.10 0.10 91 1012.3
20260506124534 15 313 0.0 3.2 0.00 0.10 0.10 91 1012.3
20260506123038 15 311 0.0 6.4 0.00 0.10 0.10 90 1012.5
20260506121527 15 257 1.6 9.7 0.03 0.10 0.10 90 1012.5
20260506120036 15 288 1.6 8.0 0.03 0.10 0.10 92 1012.6
20260506114527 14 313 1.6 6.4 0.03 0.10 0.10 92 1012.6
20260506113026 14 329 0.0 3.2 0.03 0.10 0.10 92 1012.6
20260506111524 14 278 1.6 6.4 0.03 0.08 0.08 91 1012.7
20260506110026 15 232 0.0 6.4 0.03 0.08 0.08 92 1012.8
20260506104522 15 299 1.6 8.0 0.03 0.08 0.08 92 1012.9
20260506103028 15 324 0.0 3.2 0.03 0.08 0.08 92 1013.0
20260506101522 15 326 0.0 3.2 0.03 0.05 0.05 92 1013.2
20260506100022 14 226 0.0 6.4 0.03 0.05 0.05 93 1013.2
20260506094530 15 298 0.0 8.0 0.05 0.05 0.05 91 1013.3
20260506093029 15 199 0.0 0.0 0.05 0.05 0.05 90 1013.3
20260506091523 15 182 0.0 0.0 0.05 0.05 0.05 89 1013.2
20260506090018 15 182 0.0 0.0 0.05 0.05 0.05 89 1013.2
20260506084517 15 182 0.0 0.0 0.03 0.03 0.03 89 1013.3
20260506083016 15 182 0.0 0.0 0.00 0.00 0.00 87 1013.1
20260506081513 15 115 0.0 1.6 0.00 0.00 0.00 87 1012.9
20260506073006 15 115 1.6 8.0 0.00 0.00 0.00 84 1012.7
20260506071507 15 162 0.0 9.7 0.00 0.00 0.00 85 1012.9
20260506061544 13 317 0.0 1.6 0.00 0.00 0.00 91 1012.9
20260506044551 12 317 0.0 3.2 0.00 0.00 0.00 90 1012.8
20260506043036 12 317 0.0 4.8 0.00 0.00 0.00 89 1012.7
20260506041546 12 323 0.0 9.7 0.00 0.00 0.00 89 1012.6
20260506040041 13 308 0.0 6.4 0.00 0.00 0.00 88 1012.7
20260506034535 13 305 0.0 6.4 0.00 0.00 0.00 87 1012.8
20260506033034 13 279 0.0 0.0 0.00 0.00 0.00 88 1012.8
20260506031541 13 279 0.0 3.2 0.00 0.00 0.00 88 1012.9
20260506030032 12 279 0.0 1.6 0.00 0.00 0.00 89 1012.9
20260506024535 12 279 0.0 1.6 0.00 0.00 0.00 88 1013.0
20260506023032 13 283 0.0 3.2 0.00 0.00 0.00 88 1013.0
20260506021530 12 278 0.0 1.6 0.00 0.00 0.00 88 1013.1
20260506020030 13 278 0.0 3.2 0.00 0.00 0.00 87 1013.1
20260506014529 13 262 0.0 9.7 0.00 0.00 0.00 87 1013.0
20260506013028 13 279 0.0 1.6 0.00 0.00 0.00 88 1013.1
20260506011529 13 279 0.0 6.4 0.00 0.00 0.00 86 1012.9
20260506010031 13 269 0.0 6.4 0.00 0.00 0.00 87 1013.0
20260506004536 12 311 1.6 6.4 0.00 0.00 0.00 88 1012.9
20260506003024 12 329 0.0 0.0 0.00 0.00 0.00 87 1012.9
20260506001521 13 318 1.6 6.4 0.00 0.00 0.00 85 1013.0
20260506000019 13 355 3.2 8.0 0.00 0.00 0.00 85 1013.1
20260505234533 13 360 0.0 8.0 0.00 0.00 0.00 85 1013.3
20260505233018 13 309 1.6 9.7 0.00 0.00 0.00 85 1013.3
20260505231516 13 320 1.6 9.7 0.00 0.00 0.00 84 1013.3
20260505230015 13 302 3.2 11.3 0.00 0.00 0.00 83 1013.4
20260505224514 13 313 3.2 11.3 0.00 0.00 0.00 83 1013.7
20260505223012 13 300 4.8 14.5 0.00 0.00 0.00 83 1013.8
20260505221508 13 300 1.6 8.0 0.00 0.00 0.00 84 1013.8
20260505220009 13 296 1.6 8.0 0.00 0.00 0.00 84 1013.8